When you browse on this site, cookies collect data to enhance your experience and personalize the content and advertising you see.
Visit our Privacy Policy to learn more. By continuing to use the site, you agree to this use of cookies and data.
  • In United Kingdom
  • List of Countries
  • For 7 days
  • Water Temperature
  • Weather Map
  • Weather Widgets
  • user-avatar
    Login

    Hourly Weather Zalonickie

    Today, 25 February, Tuesday

    Time Temperature Precipitation Wind Pressure Humidity
    00:00 -1°C° 0 mm 3 mps 742 mmHg 78%
    01:00 -1°C° 0 mm 3 mps 742 mmHg 78%
    02:00 -1°C° 0 mm 3 mps 742 mmHg 80%
    03:00 -2°C° 0 mm 2 mps 742 mmHg 82%
    04:00 -2°C° 0 mm 2 mps 742 mmHg 83%
    05:00 -2°C° 0 mm 2 mps 741 mmHg 85%
    06:00 -2°C° 0 mm 2 mps 741 mmHg 84%
    07:00 -2°C° 0 mm 2 mps 741 mmHg 83%
    08:00 -2°C° 0 mm 2 mps 741 mmHg 81%
    09:00 -1°C° 0 mm 2 mps 741 mmHg 74%
    10:00 0°C° 0 mm 3 mps 741 mmHg 67%
    11:00 +1°C° 0 mm 3 mps 740 mmHg 60%
    12:00 +2°C° 0 mm 3 mps 740 mmHg 59%
    13:00 +1°C° 0 mm 4 mps 739 mmHg 57%
    14:00 +3°C° 0 mm 4 mps 739 mmHg 55%
    15:00 +1°C° 0.1 mm 4 mps 738 mmHg 68%
    16:00 0°C° 0.1 mm 4 mps 737 mmHg 82%
    17:00 -1°C° 0.1 mm 4 mps 736 mmHg 95%
    18:00 -1°C° 0.5 mm 5 mps 736 mmHg 95%
    19:00 -1°C° 0.5 mm 5 mps 735 mmHg 96%
    20:00 -1°C° 0.5 mm 5 mps 735 mmHg 96%
    21:00 0°C° 0.2 mm 4 mps 734 mmHg 96%
    22:00 0°C° 0.2 mm 4 mps 733 mmHg 96%
    23:00 +1°C° 0.2 mm 4 mps 733 mmHg 95%

    Tomorrow, 26 February, Wednesday

    Time Temperature Precipitation Wind Pressure Humidity
    00:00 +2°C° 0.4 mm 3 mps 733 mmHg 96%
    01:00 +2°C° 0.4 mm 2 mps 732 mmHg 96%
    02:00 +2°C° 0.4 mm 2 mps 732 mmHg 97%
    03:00 +2°C° 0.6 mm 2 mps 732 mmHg 97%
    04:00 +2°C° 0.6 mm 2 mps 731 mmHg 97%
    05:00 +1°C° 0.6 mm 2 mps 731 mmHg 97%
    06:00 +2°C° 0.1 mm 1 mps 731 mmHg 97%
    07:00 +2°C° 0.1 mm 1 mps 731 mmHg 97%
    08:00 +2°C° 0.1 mm 1 mps 731 mmHg 97%
    09:00 +2°C° 0 mm 2 mps 731 mmHg 93%
    10:00 +3°C° 0 mm 2 mps 731 mmHg 88%
    11:00 +4°C° 0 mm 2 mps 732 mmHg 83%
    12:00 +4°C° 0 mm 3 mps 732 mmHg 77%
    13:00 +5°C° 0 mm 3 mps 732 mmHg 71%
    14:00 +5°C° 0 mm 3 mps 732 mmHg 65%
    15:00 +6°C° 0 mm 2 mps 731 mmHg 68%
    16:00 +5°C° 0 mm 2 mps 731 mmHg 72%
    17:00 +5°C° 0 mm 2 mps 731 mmHg 76%
    18:00 +4°C° 0 mm 2 mps 731 mmHg 79%
    19:00 +4°C° 0 mm 2 mps 731 mmHg 82%
    20:00 +3°C° 0 mm 2 mps 732 mmHg 85%
    21:00 +3°C° 0 mm 2 mps 731 mmHg 86%
    22:00 +3°C° 0 mm 2 mps 731 mmHg 87%
    23:00 +3°C° 0 mm 2 mps 731 mmHg 88%

    Day after tomorrow, 27 February, Thursday

    Time Temperature Precipitation Wind Pressure Humidity
    00:00 +3°C° 0 mm 2 mps 731 mmHg 90%
    01:00 +3°C° 0 mm 1 mps 731 mmHg 92%
    02:00 +3°C° 0 mm 1 mps 731 mmHg 94%
    03:00 +3°C° 0.1 mm 1 mps 731 mmHg 95%
    04:00 +3°C° 0.1 mm 1 mps 730 mmHg 96%
    05:00 +3°C° 0.1 mm 1 mps 730 mmHg 97%
    06:00 +3°C° 0.6 mm 1 mps 730 mmHg 96%
    07:00 +1°C° 0.6 mm 2 mps 731 mmHg 95%
    08:00 0°C° 0.6 mm 3 mps 731 mmHg 95%
    09:00 +1°C° 0.1 mm 3 mps 731 mmHg 89%
    10:00 +1°C° 0.1 mm 3 mps 731 mmHg 83%
    11:00 +2°C° 0.1 mm 3 mps 731 mmHg 77%
    12:00 +1°C° 0.1 mm 4 mps 731 mmHg 73%
    13:00 +1°C° 0.1 mm 4 mps 731 mmHg 69%
    14:00 +2°C° 0.1 mm 5 mps 732 mmHg 66%
    15:00 +1°C° 0 mm 5 mps 732 mmHg 67%
    16:00 0°C° 0 mm 5 mps 732 mmHg 68%
    17:00 -1°C° 0 mm 5 mps 732 mmHg 69%
    18:00 -1°C° 0 mm 5 mps 732 mmHg 71%
    19:00 -2°C° 0 mm 5 mps 732 mmHg 73%
    20:00 -2°C° 0 mm 5 mps 732 mmHg 75%
    21:00 -2°C° 0 mm 5 mps 732 mmHg 74%
    22:00 -4°C° 0 mm 5 mps 732 mmHg 72%
    23:00 -4°C° 0 mm 6 mps 732 mmHg 70%

    28 February, Friday

    Time Temperature Precipitation Wind Pressure Humidity
    00:00 -4°C° 0 mm 6 mps 732 mmHg 71%
    01:00 -4°C° 0 mm 6 mps 732 mmHg 72%
    02:00 -4°C° 0 mm 6 mps 732 mmHg 74%
    03:00 -4°C° 0 mm 6 mps 732 mmHg 76%
    04:00 -4°C° 0 mm 6 mps 732 mmHg 78%
    05:00 -4°C° 0 mm 6 mps 733 mmHg 81%
    06:00 -4°C° 0.1 mm 6 mps 733 mmHg 82%
    07:00 -4°C° 0.1 mm 5 mps 733 mmHg 84%
    08:00 -2°C° 0.1 mm 5 mps 734 mmHg 85%
    09:00 -2°C° 0 mm 5 mps 734 mmHg 82%
    10:00 -2°C° 0 mm 5 mps 735 mmHg 79%
    11:00 -1°C° 0 mm 5 mps 735 mmHg 76%
    12:00 -1°C° 0 mm 5 mps 736 mmHg 72%
    13:00 -1°C° 0 mm 5 mps 736 mmHg 69%
    14:00 0°C° 0 mm 5 mps 737 mmHg 66%
    15:00 -1°C° 0.1 mm 4 mps 737 mmHg 71%
    16:00 -1°C° 0.1 mm 4 mps 738 mmHg 76%
    17:00 0°C° 0.1 mm 3 mps 738 mmHg 81%
    18:00 -1°C° 0.2 mm 3 mps 738 mmHg 83%
    19:00 -2°C° 0.2 mm 2 mps 739 mmHg 86%
    20:00 -2°C° 0.2 mm 2 mps 739 mmHg 89%
    21:00 -2°C° 0 mm 2 mps 740 mmHg 89%
    22:00 -3°C° 0 mm 2 mps 740 mmHg 88%
    23:00 -3°C° 0 mm 2 mps 740 mmHg 88%

    29 February, Saturday

    Time Temperature Precipitation Wind Pressure Humidity
    00:00 -3°C° 0 mm 2 mps 741 mmHg 88%
    01:00 -3°C° 0 mm 2 mps 741 mmHg 88%
    02:00 -3°C° 0 mm 2 mps 741 mmHg 88%
    03:00 -3°C° 0 mm 2 mps 741 mmHg 87%
    04:00 -3°C° 0 mm 2 mps 741 mmHg 86%
    05:00 -4°C° 0 mm 2 mps 741 mmHg 86%
    06:00 -4°C° 0 mm 2 mps 742 mmHg 82%
    07:00 -5°C° 0 mm 3 mps 742 mmHg 78%
    08:00 -5°C° 0 mm 3 mps 742 mmHg 74%
    09:00 -4°C° 0 mm 3 mps 743 mmHg 69%
    10:00 -2°C° 0 mm 3 mps 743 mmHg 64%
    11:00 -2°C° 0 mm 4 mps 743 mmHg 59%
    12:00 -2°C° 0 mm 4 mps 743 mmHg 59%
    13:00 -1°C° 0 mm 4 mps 743 mmHg 60%
    14:00 -1°C° 0 mm 4 mps 744 mmHg 61%
    15:00 0°C° 0 mm 3 mps 744 mmHg 64%
    16:00 -1°C° 0 mm 3 mps 744 mmHg 68%
    17:00 -1°C° 0 mm 3 mps 744 mmHg 72%
    18:00 -2°C° 0 mm 2 mps 745 mmHg 75%
    19:00 -2°C° 0 mm 2 mps 745 mmHg 78%
    20:00 -3°C° 0 mm 2 mps 745 mmHg 81%
    21:00 -3°C° 0 mm 2 mps 746 mmHg 82%
    22:00 -3°C° 0 mm 2 mps 746 mmHg 83%
    23:00 -3°C° 0 mm 2 mps 746 mmHg 84%

    1 March, Sunday

    Time Temperature Precipitation Wind Pressure Humidity
    00:00 -4°C° 0 mm 2 mps 746 mmHg 83%
    01:00 -4°C° 0 mm 2 mps 746 mmHg 83%
    02:00 -4°C° 0 mm 2 mps 746 mmHg 83%
    03:00 -4°C° 0 mm 2 mps 746 mmHg 82%
    04:00 -4°C° 0 mm 2 mps 746 mmHg 81%
    05:00 -4°C° 0 mm 2 mps 746 mmHg 81%
    06:00 -4°C° 0 mm 2 mps 746 mmHg 78%
    07:00 -4°C° 0 mm 3 mps 746 mmHg 76%
    08:00 -4°C° 0 mm 3 mps 746 mmHg 73%
    09:00 -2°C° 0 mm 3 mps 746 mmHg 67%
    10:00 -2°C° 0 mm 4 mps 746 mmHg 61%
    11:00 -1°C° 0 mm 5 mps 746 mmHg 54%
    12:00 -1°C° 0 mm 5 mps 745 mmHg 52%
    13:00 -1°C° 0 mm 5 mps 744 mmHg 50%
    14:00 0°C° 0 mm 5 mps 744 mmHg 48%
    15:00 -1°C° 0 mm 5 mps 743 mmHg 56%
    16:00 -1°C° 0 mm 5 mps 742 mmHg 65%
    17:00 -2°C° 0 mm 5 mps 742 mmHg 73%
    18:00 -2°C° 0.7 mm 5 mps 742 mmHg 81%
    19:00 -2°C° 0.7 mm 5 mps 741 mmHg 89%
    20:00 -2°C° 0.7 mm 5 mps 741 mmHg 97%
    21:00 -1°C° 0.2 mm 5 mps 741 mmHg 95%
    22:00 -1°C° 0.2 mm 4 mps 741 mmHg 93%
    23:00 0°C° 0.2 mm 4 mps 742 mmHg 91%
    Show more